FW2423 Weather Reports


time (UTC)temp
C
wind
direction
speed
KPH
gust
KPH
rain 1hr
cm
rain 24hr
cm
rain mn
cm
humidity
%
barometer
mb
20260906234534 22 22 6.4 14.5 0.00 0.00 0.00 42 1005.8
20260906233034 24 296 9.7 20.9 0.00 0.00 0.00 37 1005.9
20260906231532 24 279 8.0 16.1 0.00 0.00 0.00 36 1005.7
20260906230030 23 304 9.7 27.4 0.00 0.00 0.00 37 1005.8
20260906224629 24 256 9.7 27.4 0.00 0.00 0.00 36 1005.5
20260906223031 26 299 11.3 25.7 0.00 0.00 0.00 33 1005.4
20260906221527 27 304 11.3 25.7 0.00 0.00 0.00 32 1005.2
20260906220026 25 300 9.7 22.5 0.00 0.00 0.00 32 1005.2
20260906214525 26 72 11.3 19.3 0.00 0.00 0.00 31 1004.9
20260906213124 26 304 4.8 11.3 0.00 0.00 0.00 34 1004.6
20260906211523 26 342 6.4 14.5 0.00 0.00 0.00 33 1004.6
20260906210023 27 306 4.8 11.3 0.00 0.00 0.00 32 1004.6
20260906204531 27 348 0.0 11.3 0.00 0.00 0.00 32 1004.4
20260906203021 27 272 3.2 9.7 0.00 0.00 0.00 31 1004.6
20260906201520 27 40 1.6 14.5 0.00 0.00 0.00 32 1004.6
20260906200118 27 319 3.2 12.9 0.00 0.00 0.00 31 1004.8
20260906194517 27 195 8.0 19.3 0.00 0.00 0.00 31 1005.0
20260906193014 29 276 8.0 17.7 0.00 0.00 0.00 29 1005.3
20260906191524 27 276 4.8 17.7 0.00 0.00 0.00 31 1005.6
20260906190009 27 34 6.4 17.7 0.00 0.00 0.00 29 1005.9
20260906184507 28 326 4.8 19.3 0.00 0.00 0.00 29 1006.2
20260906183010 28 169 3.2 16.1 0.00 0.00 0.00 29 1006.4
20260906181607 27 291 3.2 9.7 0.00 0.00 0.00 29 1006.5
20260906180002 27 198 3.2 17.7 0.00 0.00 0.00 29 1006.7
20260906174501 27 254 1.6 11.3 0.00 0.00 0.00 29 1006.9
20260906173106 27 224 1.6 11.3 0.00 0.00 0.00 28 1007.0
20260906171607 26 207 1.6 11.3 0.00 0.00 0.00 27 1007.0
20260906170109 27 282 1.6 12.9 0.00 0.00 0.00 28 1007.1
20260906164602 27 323 4.8 16.1 0.00 0.00 0.00 27 1007.1
20260906163107 27 147 1.6 12.9 0.00 0.00 0.00 30 1007.0
20260906161555 27 275 4.8 16.1 0.00 0.00 0.00 29 1006.9
20260906160054 27 134 9.7 17.7 0.00 0.00 0.00 29 1007.1
20260906154557 26 253 4.8 14.5 0.00 0.00 0.00 28 1007.0
20260906153049 26 175 3.2 19.3 0.00 0.00 0.00 28 1007.2
20260906151546 25 283 3.2 11.3 0.00 0.00 0.00 29 1007.1
20260906150043 23 217 1.6 8.0 0.00 0.00 0.00 31 1007.1
20260906144542 23 165 0.0 9.7 0.00 0.00 0.00 34 1007.1
20260906143041 23 117 3.2 9.7 0.00 0.00 0.00 34 1007.0
20260906141540 23 91 4.8 14.5 0.00 0.00 0.00 32 1007.2
20260906140036 23 114 3.2 8.0 0.00 0.00 0.00 32 1007.4
20260906134535 22 96 6.4 12.9 0.00 0.00 0.00 31 1007.2
20260906133032 22 139 3.2 11.3 0.00 0.00 0.00 32 1007.3
20260906131540 21 145 3.2 8.0 0.00 0.00 0.00 34 1007.3
20260906130028 21 117 4.8 12.9 0.00 0.00 0.00 33 1007.4
20260906124527 18 117 4.8 9.7 0.00 0.00 0.00 37 1007.4
20260906123026 18 143 1.6 4.8 0.00 0.00 0.00 38 1007.1
20260906121526 19 162 0.0 4.8 0.00 0.00 0.00 38 1006.9
20260906120025 19 161 1.6 4.8 0.00 0.00 0.00 37 1006.7
20260906114524 20 157 0.0 4.8 0.00 0.00 0.00 36 1006.7
20260906113024 21 141 1.6 9.7 0.00 0.00 0.00 34 1006.5
20260906111522 20 133 1.6 8.0 0.00 0.00 0.00 35 1006.5
20260906110021 20 130 0.0 8.0 0.00 0.00 0.00 35 1006.6
20260906104533 21 115 4.8 12.9 0.00 0.00 0.00 34 1006.6
20260906103021 21 153 3.2 11.3 0.00 0.00 0.00 34 1006.5
20260906101520 20 140 4.8 9.7 0.00 0.00 0.00 34 1006.7
20260906100019 21 157 4.8 11.3 0.00 0.00 0.00 32 1006.6
20260906094534 21 153 6.4 12.9 0.00 0.00 0.00 31 1006.7
20260906093027 21 77 6.4 14.5 0.00 0.00 0.00 32 1006.9
20260906091515 21 149 4.8 11.3 0.00 0.00 0.00 31 1006.9
20260906090015 21 85 6.4 17.7 0.00 0.00 0.00 31 1006.7
20260906084513 21 102 6.4 16.1 0.00 0.00 0.00 31 1006.9
20260906083016 21 155 6.4 19.3 0.00 0.00 0.00 31 1007.0
20260906081510 20 122 1.6 8.0 0.00 0.00 0.00 32 1007.4
20260906080004 20 150 1.6 12.9 0.00 0.00 0.00 32 1007.5
20260906074503 20 131 4.8 11.3 0.00 0.00 0.00 32 1007.4
20260906073002 18 132 3.2 8.0 0.00 0.00 0.00 34 1007.3
20260906071603 18 158 0.0 4.8 0.00 0.00 0.00 34 1007.5
20260906070059 18 177 1.6 6.4 0.00 0.00 0.00 33 1007.4
20260906064558 19 153 1.6 8.0 0.00 0.00 0.00 32 1007.5
20260906063058 18 133 3.2 8.0 0.00 0.00 0.00 33 1007.4
20260906061557 18 150 4.8 12.9 0.00 0.00 0.00 32 1007.4
20260906060150 20 155 3.2 14.5 0.00 0.00 0.00 30 1007.5
20260906054550 18 138 1.6 4.8 0.00 0.00 0.00 33 1007.5
20260906053053 19 143 3.2 11.3 0.00 0.00 0.00 31 1007.3
20260906051553 20 140 4.8 9.7 0.00 0.00 0.00 30 1007.2
20260906050047 21 102 6.4 12.9 0.00 0.00 0.00 30 1007.3
20260906044547 21 133 3.2 14.5 0.00 0.00 0.00 30 1007.3
20260906043046 21 117 6.4 14.5 0.00 0.00 0.00 30 1007.6
20260906041548 20 159 3.2 8.0 0.00 0.00 0.00 32 1007.6
20260906040044 20 214 1.6 14.5 0.00 0.00 0.00 32 1007.5
20260906034548 19 188 0.0 4.8 0.00 0.00 0.00 34 1007.4
20260906033045 20 141 1.6 6.4 0.00 0.00 0.00 34 1007.3
20260906031542 19 148 0.0 6.4 0.00 0.00 0.00 35 1006.9
20260906030042 19 170 1.6 8.0 0.00 0.00 0.00 36 1006.5
20260906024556 19 143 0.0 4.8 0.00 0.00 0.00 36 1006.3
20260906023042 20 142 1.6 8.0 0.00 0.00 0.00 34 1006.0
20260906021540 21 127 1.6 6.4 0.00 0.00 0.00 34 1005.7
20260906020046 23 141 0.0 3.2 0.00 0.00 0.00 31 1005.4
20260906014551 25 289 0.0 1.6 0.00 0.00 0.00 28 1005.1
20260906013043 27 278 0.0 8.0 0.00 0.00 0.00 26 1005.1
20260906011541 27 249 6.4 14.5 0.00 0.00 0.00 25 1005.1
20260906010036 28 280 3.2 11.3 0.00 0.00 0.00 25 1005.0
20260906004541 28 224 3.2 14.5 0.00 0.00 0.00 25 1005.1
20260906003047 28 257 0.0 14.5 0.00 0.00 0.00 24 1004.9
20260906001534 28 221 6.4 16.1 0.00 0.00 0.00 25 1004.9
20260906000034 28 325 1.6 14.5 0.00 0.00 0.00 25 1004.9